Location: Babice
(50.3480°N, 22.9363°E)
Time: 12:25:28
(UTC+00:00)

ERS-2 - Pass Details

Date: 14 July 2020
Orbit: 493 x 498 km, 98.5° (Epoch: 08 August)

Event Time Altitude Azimuth Distance (km) Brightness Sun altitude
Rises 00:55:46 0° 135° (SE) 2,573 5.6 -11.5°
Reaches altitude 10° 00:58:02 10° 123° (ESE) 1,695 4.8 -11.3°
Maximum altitude 01:01:07 27° 65° (ENE) 993 4.4 -11.0°
Drops below altitude 10° 01:04:14 10° 7° (N) 1,705 5.9 -10.8°
Sets 01:06:31 0° 355° (N) 2,592 6.6 -10.6°
